www.pogodaiklimat.ru

Погода и климат >> Архив погоды >> Финляндия >> Кеми аэропорт


ПОГОДА в Кеми аэропорту

  • Прогноз погоды в Кеми аэропорту
  • Монитор погоды в Кеми аэропорту

АРХИВ ПОГОДЫ в Кеми аэропорту

Время (UTC), дата Ветер
(напр.,м/с)
 
Видим.   Явления Облачность Т
(С)
Тd
(С)
f
(%)
Тe
(С)
Тes
(С)
Комфортность P
(гПа)
Po
(гПа)
Тmin
(С)
Tmax
(С)
R
(мм)
R24
(мм)
S
(см)
16 16.08 ЮЗ 5 60 км 10/0 300 м
[]
+15.3 +13.2 87 +14 +14 1009.8 1008.3
17 16.08 Ю 3 60 км ясно +15.4 +13.0 86 +15 +15 1009.7 1008.2
18 16.08 ЮВ 2 50 км ясно +13.9 +12.3 90 +13 +13 1009.8 1008.3 +10.7 +18.3
19 16.08 Ю 2 40 км ясно +12.1 +11.5 96 +11 +11 1009.8 1008.3
20 16.08 ЮВ 2 40 км 6/0
[]
+12.1 +11.6 97 +11 +11 1009.9 1008.4
21 16.08 ЮВ 3 35 км 6/0
[]
+11.2 +10.7 97 +9 +9 1009.9 1008.4
22 16.08 Ю 6 50 км 10/0
[]
+14.1 +12.3 89 +12 +12 1009.8 1008.3
23 16.08 Ю 6 45 км 9/0
[]
+14.5 +12.8 90 +13 +13 1010.0 1008.5
00 17.08 Ю 4 40 км 9/9
[]
+14.5 +12.7 89 +13 +13 1010.2 1008.7
01 17.08 Ю 5 40 км 9/0 1500 м
[]
+14.2 +12.7 91 +12 +12 1010.2 1008.7
02 17.08 Ю 5 45 км 10/0 600 м
[]
+14.6 +12.1 85 +13 +13 1010.0 1008.5
03 17.08 Ю 4 40 км 10/10 1000 м
[]
+14.7 +11.4 81 +13 +13 1009.8 1008.3
04 17.08 Ю 4 45 км 10/0 1000 м
[]
+14.8 +11.3 80 +14 +14 1009.7 1008.2
05 17.08 Ю 5 50 км 9/3 1000 м
[]
+15.1 +11.7 80 +14 +14 1009.7 1008.2
06 17.08 Ю 5 45 км 9/9 300 м
[]
+15.0 +12.3 84 +14 +14 1009.6 1008.1 +10.9 +15.3
07 17.08 Ю 3 26 км слаб. ливневой дождь 10/0 300 м
[]
+14.5 +13.3 93 +14 +15 1009.7 1008.2
08 17.08 Ю 5 45 км 10/0 300 м
[]
+15.0 +12.9 87 +14 +15 1009.7 1008.2
09 17.08 Ю 5 45 км 10/10 300 м
[]
+15.8 +13.5 86 +15 +15 1009.8 1008.3
10 17.08 Ю 4 40 км 10/0 300 м
[]
+15.6 +13.0 85 +15 +17 1009.9 1008.4
11 17.08 Ю 5 35 км 10/0 300 м
[]
+15.7 +13.2 85 +14 +17 1010.1 1008.6
12 17.08 Ю 5 35 км 10/10 300 м
[]
+15.8 +13.8 88 +15 +15 1010.2 1008.7
13 17.08 Ю 5 40 км 10/0 300 м
[]
+16.6 +13.9 84 +16 +17 1009.9 1008.4
14 17.08 Ю 6 45 км 9/5 300 м
[]
+17.4 +14.1 81 +17 +17 1009.7 1008.2
15 17.08 Ю 4 50 км 6/6 1000 м
[]
+17.4 +13.9 80 +17 +18 1009.4 1007.9
16 17.08 Ю 3 35 км 8/0 1000 м
[]
+18.0 +14.1 78 +18 +19 1009.3 1007.8
17 17.08 ЮВ 3 30 км 6/6 1500 м
[]
+16.9 +14.1 84 +17 +17 1009.1 1007.6
18 17.08 ЮВ 3 40 км 8/1 1500 м
[]
+16.1 +14.0 87 +16 +16 1008.8 1007.3 +13.8 +18.1
19 17.08 ЮВ 3 40 км 9/0 1500 м
[]
+16.1 +14.0 87 +16 +16 1008.5 1007.0
20 17.08 Ю 5 45 км 9/1 1000 м
[]
+17.1 +13.9 81 +16 +16 1008.4 1007.0
21 17.08 Ю 5 27 км слаб. ливневой дождь 8/8 100 м
[]
+15.2 +14.5 96 +14 +14 1009.1 1007.6
22 17.08 ЮВ 3 45 км 10/0 2000 м
[]
+14.9 +13.2 90 +14 +14 1009.1 1007.6
23 17.08 ЮВ 3 30 км 9/5 1500 м
[]
+14.4 +13.0 91 +13 +13 1009.4 1007.9
00 18.08 Ю 5 50 км 10/1 1000 м
[]
+15.7 +14.1 90 +14 +14 1009.3 1007.8
01 18.08 Ю 5 55 км 9/4 1500 м
[]
+15.5 +13.0 85 +14 +14 1009.4 1007.9
02 18.08 Ю 6 50 км 8/0 1500 м
[]
+15.3 +13.1 87 +14 +14 1009.2 1007.7
03 18.08 Ю 5 30 км ясно +14.9 +13.4 91 +13 +13 1009.4 1007.9
04 18.08 Ю 7 45 км 9/0
[]
+15.5 +13.8 90 +14 +14 1009.4 1007.9
05 18.08 Ю 5 40 км 8/0
[]
+15.6 +13.5 87 +14 +15 1009.5 1008.0
06 18.08 Ю 7 45 км 9/4 1000 м
[]
+16.3 +12.9 80 +15 +15 1009.6 1008.1 +14.4 +17.1
07 18.08 Ю 5 55 км 4/0
[]
+17.5 +13.0 75 +17 +19 1009.4 1007.9
08 18.08 ЮВ 5 55 км 9/3 1000 м
[]
+17.1 +13.0 77 +16 +18 1009.3 1007.9
09 18.08 Ю 5 45 км 10/6 600 м
[]
+17.3 +13.6 79 +17 +17 1009.3 1007.8
10 18.08 Ю 6 50 км 9/4 600 м
[]
+17.8 +13.8 77 +17 +18 1009.4 1007.9
11 18.08 Ю 7 35 км 9/1 1000 м
[]
+18.0 +14.0 77 +17 +18 1009.6 1008.1
12 18.08 Ю 6 45 км 10/10
[]
+18.6 +14.1 75 +19 +19 1009.5 1008.0
13 18.08 Ю 5 23 км слаб. ливневой дождь 10/0
[]
+16.8 +14.5 86 +16 +17 1009.6 1008.1
14 18.08 Ю 4 25 км слаб. дождь 10/0 2000 м
[]
+16.1 +13.7 86 +15 +17 1009.5 1008.0
15 18.08 Ю 6 6000 м сильн. ливневой дождь 10/10 600 м
[]
+15.1 +14.3 95 +13 +13 1009.8 1008.3
16 18.08 ЮВ 4 21 км слаб. дождь 10/9 1000 м
[]
+14.6 +13.5 93 +13 +13 1009.6 1008.1
17 18.08 ЮВ 2 5000 м дождь 10/0 600 м
[]
+14.4 +14.0 97 +14 +14 1009.5 1008.0
18 18.08 ЮВ 5 8000 м дождь 10/10 1000 м
[]
+15.0 +14.6 97 +13 +13 1009.3 1007.8 +14.4 +18.6
19 18.08 Ю 7 14 км дождь 10/0 600 м
[]
+15.1 +14.3 95 +13 +13 1008.8 1007.3
20 18.08 ЮВ 5 35 км в посл. час дождь 10/0 1000 м
[]
+15.1 +14.2 94 +14 +14 1008.7 1007.2
21 18.08 Ю 5 11 км ливневой дождь 10/6 600 м
[]
+14.6 +14.0 96 +13 +13 1008.9 1007.4
22 18.08 ЮВ 3 45 км в посл. час дождь 10/0 600 м
[]
+14.8 +13.6 93 +14 +14 1008.3 1006.8
23 18.08 ЮВ 3 50 км 10/0 1000 м
[]
+14.8 +13.5 92 +14 +14 1008.1 1006.6
00 19.08 ЮВ 4 50 км 10/10 1000 м
[]
+15.0 +13.4 90 +14 +14 1007.5 1006.0
01 19.08 ЮВ 3 35 км 10/0 1000 м
[]
+14.7 +13.0 90 +14 +14 1007.0 1005.5
02 19.08 ЮВ 4 55 км 10/0 1500 м
[]
+14.6 +11.6 82 +13 +13 1006.5 1005.0
03 19.08 ЮВ 5 50 км 9/5 1000 м
[]
+14.1 +11.3 83 +12 +12 1005.6 1004.1
04 19.08 ЮВ 5 30 км ливневой дождь 10/0 1000 м
[]
+13.9 +11.4 85 +12 +12 1005.3 1003.9
05 19.08 ЮВ 4 30 км слаб. ливневой дождь 10/0 1000 м
[]
+13.4 +11.6 89 +12 +12 1004.7 1003.2
06 19.08 ЮВ 4 12 км слаб. ливневой дождь 10/10 600 м
[]
+13.5 +11.9 90 +12 +12 1004.5 1003.0 +13.3 +15.4
07 19.08 ЮВ 4 12 км дождь 10/0 600 м
[]
+13.5 +12.6 94 +12 +13 1003.8 1002.3
08 19.08 ЮВ 4 5000 м сильн. дождь 10/0 600 м
[]
+13.3 +13.0 98 +11 +13 1003.0 1001.5
09 19.08 ЮВ 5 11 км дождь 10/8 600 м
[]
+13.8 +13.0 95 +12 +12 1001.7 1000.2
10 19.08 ЮВ 7 4300 м дождь 10/10 300 м
[]
+13.8 +13.3 97 +11 +11 1000.4 998.9
11 19.08 ЮВ 7 13 км дождь 10/0 200 м
[]
+14.4 +13.8 96 +12 +13 999.9 998.4
12 19.08 ЮВ 7 28 км слаб. ливневой дождь 10/10 200 м
[]
+14.7 +14.1 96 +13 +13 999.8 998.3
13 19.08 Ю 7 35 км в посл. час дождь 10/0 200 м
[]
+15.4 +14.4 94 +14 +14 999.8 998.3
14 19.08 Ю 9 35 км 10/0 200 м
[]
+16.1 +14.7 91 +14 +14 1000.1 998.6
15 19.08 Ю 9 50 км 10/10 200 м
[]
+15.6 +14.3 92 +14 +14 1001.0 999.5
16 19.08 Ю 8 55 км 10/0 200 м
[]
+15.1 +13.9 93 +13 +13 1001.6 1000.1
17 19.08 ЮЗ 9 45 км 9/0 200 м
[]
+15.0 +14.1 94 +13 +13 1002.2 1000.8
18 19.08 ЮЗ 7 30 км 10/10 100 м
[]
+14.9 +14.0 94 +13 +13 1003.0 1001.6 +13.3 +16.1
19 19.08 Ю 7 30 км 5/0 200 м
[]
+14.4 +13.4 94 +12 +12 1003.4 1001.9
20 19.08 Ю 6 30 км 4/0 200 м
[]
+14.3 +13.2 93 +12 +12 1003.7 1002.2
21 19.08 Ю 7 35 км ясно +14.4 +13.2 92 +12 +12 1004.0 1002.5
22 19.08 Ю 7 40 км 9/0 2000 м
[]
+14.5 +12.9 90 +12 +12 1004.4 1002.9
23 19.08 Ю 6 40 км 9/0 2000 м
[]
+14.1 +12.7 91 +12 +12 1004.5 1003.0
00 20.08 Ю 6 40 км 6/3 300 м
[]
+14.0 +12.7 92 +12 +12 1004.7 1003.2
01 20.08 Ю 6 40 км 8/0 200 м
[]
+13.6 +12.6 94 +11 +11 1004.8 1003.3
02 20.08 Ю 5 35 км 9/0 200 м
[]
+13.6 +12.8 95 +12 +12 1005.1 1003.6
03 20.08 Ю 6 35 км 9/9 200 м
[]
+14.0 +13.0 94 +12 +12 1005.5 1004.0
04 20.08 Ю 6 35 км 10/0 200 м
[]
+14.0 +13.2 95 +12 +12 1006.0 1004.5
05 20.08 Ю 6 30 км 10/0 200 м
[]
+14.2 +13.3 94 +12 +12 1006.5 1005.0
06 20.08 Ю 6 30 км 10/10 200 м
[]
+14.4 +13.4 94 +12 +12 1007.0 1005.5 +13.5 +14.9
07 20.08 Ю 6 35 км 10/0 200 м
[]
+14.8 +13.5 92 +13 +14 1007.5 1006.0
08 20.08 Ю 6 30 км 10/0 200 м
[]
+14.5 +13.5 94 +13 +14 1008.0 1006.5
09 20.08 Ю 6 30 км 10/10 200 м
[]
+14.9 +13.6 92 +13 +13 1008.5 1007.0
10 20.08 Ю 8 35 км 10/0 300 м
[]
+15.7 +14.0 90 +14 +15 1008.9 1007.4
11 20.08 Ю 8 35 км 10/0 200 м
[]
+15.4 +13.6 89 +13 +14 1009.4 1007.9
12 20.08 Ю 9 30 км 10/10 300 м
[]
+16.3 +14.0 86 +15 +15 1009.6 1008.1
13 20.08 ЮЗ 8 35 км 10/0 300 м
[]
+16.1 +13.9 87 +14 +15 1009.9 1008.4
14 20.08 ЮЗ 7 35 км 8/0 300 м
[]
+16.2 +13.6 85 +15 +15 1010.1 1008.6
15 20.08 ЮЗ 8 35 км 9/9 300 м
[]
+15.5 +13.4 87 +14 +14 1010.4 1008.9
16 20.08 ЮЗ 8 30 км 10/0 300 м
[]
+15.4 +13.4 88 +13 +13 1010.6 1009.1
17 20.08 Ю 7 30 км 9/0 300 м
[]
+15.0 +13.3 90 +13 +13 1010.7 1009.2
18 20.08 Ю 6 30 км 10/10 300 м
[]
+14.8 +13.2 90 +13 +13 1011.4 1009.9 +14.4 +16.3
19 20.08 Ю 6 29 км 10/0 200 м
[]
+14.6 +13.4 93 +13 +13 1011.9 1010.4
20 20.08 Ю 5 30 км 10/0 200 м
[]
+14.7 +13.4 92 +13 +13 1012.2 1010.7
21 20.08 Ю 6 30 км 10/10 200 м
[]
+14.8 +13.5 92 +13 +13 1012.4 1010.9
22 20.08 Ю 6 30 км 10/0 200 м
[]
+14.7 +13.4 92 +13 +13 1012.3 1010.8
23 20.08 Ю 5 35 км 10/0 300 м
[]
+14.5 +12.8 90 +13 +13 1012.3 1010.8
00 21.08 Ю 5 40 км 10/10 300 м
[]
+14.4 +12.5 88 +13 +13 1012.3 1010.8
01 21.08 Ю 4 35 км 10/0 300 м
[]
+14.3 +12.8 91 +13 +13 1012.6 1011.1
02 21.08 Ю 4 30 км 10/0 200 м
[]
+14.3 +13.1 92 +13 +13 1012.7 1011.2
03 21.08 Ю 3 30 км 10/10 200 м
[]
+14.3 +13.1 92 +13 +13 1012.8 1011.3
04 21.08 Ю 4 29 км 10/0 100 м
[]
+14.3 +13.3 94 +13 +13 1013.2 1011.7
05 21.08 Ю 5 26 км 10/0 100 м
[]
+14.4 +13.5 94 +13 +13 1013.3 1011.8
06 21.08 Ю 5 21 км 10/10 100 м
[]
+14.4 +13.7 96 +13 +13 1013.6 1012.1 +14.2 +14.9
07 21.08 Ю 6 21 км 10/0 100 м
[]
+14.5 +13.9 96 +13 +13 1014.0 1012.5
08 21.08 Ю 4 35 км 9/8 100 м
[]
+15.3 +14.0 92 +14 +15 1014.3 1012.8
09 21.08 Ю 6 45 км 9/9 200 м
[]
+16.1 +13.9 87 +15 +15 1014.5 1013.0
10 21.08 Ю 6 40 км 8/0 200 м
[]
+17.1 +14.4 84 +16 +18 1014.9 1013.4
11 21.08 ЮЗ 6 30 км 9/8 300 м
[]
+16.4 +13.8 85 +15 +16 1015.1 1013.6
12 21.08 ЮЗ 7 40 км 3/3 300 м
[]
+16.6 +13.7 83 +15 +17 1015.0 1013.5
13 21.08 ЮЗ 6 50 км 1/0
[]
+16.5 +12.8 79 +15 +17 1015.2 1013.7
14 21.08 ЮЗ 6 55 км 6/0
[]
+16.0 +12.5 80 +15 +16 1015.3 1013.8
15 21.08 ЮЗ 5 35 км 9/9
[]
+16.2 +13.7 85 +15 +15 1015.3 1013.8
16 21.08 Ю 4 40 км 3/1 200 м
[]
+15.6 +13.6 88 +15 +15 1015.4 1013.9
17 21.08 Ю 3 30 км 1/0 200 м
[]
+14.6 +13.6 94 +14 +14 1015.2 1013.7
18 21.08 Ю 3 30 км 4/4 200 м
[]
+14.1 +13.4 96 +13 +13 1015.4 1013.9 +14.1 +17.1
19 21.08 Ю 3 22 км 8/0 100 м
[]
+13.7 +13.3 97 +12 +12 1015.1 1013.6
20 21.08 Ю 3 22 км 10/0 100 м
[]
+13.9 +13.6 98 +13 +13 1015.1 1013.6
21 21.08 ЮВ 3 27 км 9/9 100 м
[]
+14.0 +13.5 97 +13 +13 1015.1 1013.6
22 21.08 ЮВ 2 19 км 10/0 100 м
[]
+13.8 +13.5 98 +13 +13 1015.2 1013.7
23 21.08 ЮВ 2 13 км 10/0 50 м
[]
+13.6 +13.4 99 +13 +13 1014.8 1013.3
00 22.08 Ю 2 13 км 10/10 50 м
[]
+13.6 +13.5 99 +13 +13 1014.8 1013.3
01 22.08 Ю 2 4900 м дымка 10/0 50 м
[]
+13.4 +13.4 100 +13 +13 1014.6 1013.1
02 22.08 В 1 100 м туман ?/? +11.7 +11.7 100 +11 +11 1014.5 1013.0
03 22.08 штиль 0 100 м туман ?/? +9.1 +9.1 100 +8 +8 1014.5 1013.0
04 22.08 Ю 1 50 км в посл. час туман 6/0 50 м
[]
+9.2 +9.1 99 +8 +9 1014.6 1013.1
05 22.08 З 2 35 км 5/0 50 м
[]
+12.1 +11.4 95 +11 +12 1014.8 1013.3
06 22.08 СЗ 1 45 км 6/6 50 м
[]
+12.9 +11.8 93 +13 +14 1014.8 1013.3 +8.3 +14.1
07 22.08 З 2 60 км ясно +14.8 +11.6 81 +14 +18 1014.9 1013.4
08 22.08 ЮЗ 4 60 км ясно +16.3 +9.7 65 +16 +19 1015.0 1013.5
09 22.08 ЮЗ 4 50 км ясно +17.0 +10.4 65 +17 +21 1015.2 1013.7
10 22.08 ЮЗ 4 60 км ясно +17.3 +11.5 69 +17 +22 1015.5 1014.0
11 22.08 ЮЗ 5 60 км ясно +17.1 +11.1 68 +16 +20 1015.4 1013.9
12 22.08 ЮЗ 5 50 км ясно +16.8 +11.1 69 +16 +19 1015.5 1014.0
13 22.08 ЮЗ 5 60 км 5/0 2000 м
[]
+16.7 +11.1 70 +16 +18 1015.8 1014.3
14 22.08 З 5 >70 км 8/0 1000 м
[]
+16.1 +11.2 73 +15 +16 1016.2 1014.7
15 22.08 ЮЗ 4 50 км 6/6 1500 м
[]
+16.6 +11.6 72 +16 +17 1016.2 1014.7
16 22.08 ЮЗ 4 >70 км 9/5 1500 м
[]
+15.9 +11.5 75 +15 +15 1016.3 1014.8
17 22.08 ЮЗ 4 >70 км 8/3 1500 м
[]
+15.3 +11.7 79 +14 +14 1016.4 1014.9
18 22.08 ЮЗ 3 50 км 10/1 1500 м
[]
+15.0 +11.4 79 +14 +14 1016.7 1015.2 +12.9 +17.5
19 22.08 ЮЗ 2 >70 км 5/0 2000 м
[]
+13.9 +11.1 83 +13 +13 1016.8 1015.3
20 22.08 Ю 1 50 км 8/0 2000 м
[]
+10.8 +10.2 96 +10 +10 1017.0 1015.4
21 22.08 Ю 2 50 км 1/1 2000 м
[]
+10.6 +10.3 98 +9 +9 1017.1 1015.5
22 22.08 Ю 1 1500 м в посл. час туман ясно +8.9 +8.9 100 +8 +8 1016.9 1015.4
23 22.08 ЮВ 1 50 км в посл. час туман ясно +7.1 +6.9 99 +6 +6 1016.7 1015.2
00 23.08 ЮВ 1 50 км 1/1 50 м
[]
+5.8 +5.5 98 +4 +4 1016.8 1015.3
01 23.08 В 2 50 км ?/? +5.2 +4.8 97 +2 +2 1016.7 1015.2
02 23.08 ЮВ 2 1300 м туман ?/? +5.5 +5.2 98 +3 +3 1016.2 1014.7
03 23.08 В 2 50 км в посл. час туман 9/4 50 м
[]
+6.2 +6.2 100 +4 +4 1016.0 1014.5
04 23.08 ЮВ 1 30 км в посл. час туман 5/0
[]
+8.9 +8.9 100 +8 +8 1015.8 1014.3
05 23.08 ЮВ 2 40 км 8/8 200 м
[]
+13.1 +12.6 97 +12 +12 1015.8 1014.3
06 23.08 ЮВ 3 40 км 8/8 100 м
[]
+13.4 +12.5 94 +12 +12 1015.8 1014.2 +5.1 +15.0
07 23.08 ЮВ 3 45 км 3/3 200 м
[]
+13.6 +12.3 92 +12 +15 1015.6 1014.1
08 23.08 ЮВ 4 55 км 6/6 2000 м
[]
+13.7 +10.4 80 +12 +14 1015.1 1013.6
09 23.08 ЮВ 3 28 км слаб. дождь 10/10 2000 м
[]
+13.2 +10.6 84 +12 +12 1014.9 1013.4
10 23.08 ЮВ 4 26 км слаб. ливневой дождь 10/0 1500 м
[]
+13.1 +10.6 85 +11 +14 1014.5 1013.0
11 23.08 ЮВ 4 30 км слаб. ливневой дождь 10/0 300 м
[]
+12.7 +11.5 92 +11 +13 1014.0 1012.5
12 23.08 В 4 3500 м слаб. дождь 10/10 200 м
[]
+12.4 +11.8 96 +10 +10 1013.4 1011.9
13 23.08 В 4 4400 м слаб. дождь 10/0 100 м
[]
+12.4 +11.9 97 +10 +12 1012.6 1011.1
14 23.08 Ю 3 50 км в посл. час дождь 10/0 100 м
[]
+12.7 +12.5 99 +11 +13 1012.0 1010.5
15 23.08 ЮВ 4 35 км слаб. ливневой дождь 10/10 200 м
[]
+13.6 +12.7 94 +12 +12 1011.5 1010.0

 

Местоположение метеостанции Кеми аэропорт (Финляндия): широта 65.78 долгота 24.58 высота над уровнем моря 19 м.

В архиве по умолчанию представлена погода в Кеми аэропорту за последнюю неделю. Архивные данные за месяц целиком и за предыдущие месяцы, начиная с января 2011 года, Вы можете получить, выбрав интересующий диапазон дат из раскрывающегося списка и нажав кнопку "Ввод!".


*Определитесь, кто Вы:
робот инопланетянин человек

Внимание! Время в таблицах - всемирное. Для получения местного времени необходимо прибавить поправку, которая равна 1 ч.

Смотрите также архив погоды в соседних городах и на ближайших метеорологических станциях:

Погода в Кеми Айос (Финляндия) (13 км)
Погода в Торнио (Финляндия) (20 км)
Погода в Хапаранда аэропорту (Швеция) (21 км)
Погода в Кеми (Финляндия) (49 км)
Погода в Стороне (Швеция) (68 км)
Погода в Дйнжандихеиди (Исландия) (69 км)
Погода на Маяке Marjaniemi (Финляндия) (82 км)
Погода в Мелтосярви (Финляндия) (83 км)
Погода в Аэропорту Рануа (Финляндия) (84 км)
Погода в Хайлуото (Финляндия) (85 км)

Пояснения к столбцам:

Ветер - указаны скорость ветра в м/с - средняя за 10 мин, порывы в срок и между сроками (в фигурных скобках) и направление, откуда дует ветер: С - северный, СВ - северо-восточный, В - восточный, ЮВ - юго-восточный, Ю - южный, ЮЗ - юго-западный, З - западный, СЗ - северо-западный.
Видимость - горизонтальная дальность видимости в метрах или километрах. При видимости от 1 до 10 км при отсутствии осадков обычно наблюдается дымка, при ухудшении видимости до 1 км и менее - туман. В сухую погоду видимость может ухудшаться дымом, пылью или мглою.
Явления - указаны атмосферные явления, наблюдавшиеся в срок или в последний час перед сроком; фигурными скобками обозначены явления, наблюдавшиеся между сроками (за 1-3 часа до срока); квадратными скобками обозначены град или гололедные отложения с указанием их диаметра в мм.
Облачность - указаны через наклонную черту общая и нижняя облачность в баллах и высота нижней границы облаков в метрах; квадратными скобками обозначены формы облаков: Ci - перистые, Cs - перисто-слоистые, Cc - перисто-кучевые, Ac - высококучевые, As - высокослоистые, Sc - слоисто-кучевые, Ns - слоисто-дождевые, Cu - кучевые, Cb - кучево-дождевые. Подробнее классификацию облаков см. в Атласе облаков (PDF).
T - Температура воздуха - температура, измеренная на высоте 2 м над землей.
Td - Температура точки росы - температура, при понижении до которой содержащийся в воздухе водяной пар достигнет насыщения.
f - Относительная влажность воздуха - влажноcть воздуха, измеренная на высоте 2 м над землей.
Te - Эффективная температура - температура, которую ощущает одетый по сезону человек в тени. Характеристика душности погоды. При расчете учитывается влияние влажности воздуха и скорости ветра на теплоощущения человека.
Tes - Эффективная температура на солнце - температура, которую ощущает человек, с поправкой на солнечный нагрев. Характеристика знойности погоды. Зависит от высоты солнца над горизонтом, облачности и скорости ветра. Ночью, в пасмурную погоду, а также при ветре 12 м/с и более поправка равна нулю.
P - Атмосферное давление - приведенное к уровню моря атмосферное давление.
Po - Атмосферное давление - измеренное на уровне метеостанции атмосферное давление.
Tmin - Минимальная температура - минимум температуры воздуха на высоте 2 м над землей.
Tmax - Максимальная температура - максимум температуры воздуха на высоте 2 м над землей.
R - Количество осадков - Количество выпавших осадков за период времени, мм. При наведении курсора мыши на число - период времени, за который выпало указанное количество осадков.
R24 - Количество осадков - Количество выпавших осадков за 24 часа, мм.
S - Снежный покров - Высота снежного покрова, см. При наведении курсора мыши на число - состояние снежного покрова и степень покрытия местности в баллах.